www.pogodaiklimat.ru

Погода и климат >> Архив погоды >> Австралия >> Южная Австралия >> Уудинна


ПОГОДА в Уудинне

  • Прогноз погоды в Уудинне
  • Монитор погоды в Уудинне

АРХИВ ПОГОДЫ в Уудинне

Время (UTC), дата Ветер
(напр.,м/с)
 
Видим.   Явления Облачность Т
(С)
Тd
(С)
f
(%)
Тe
(С)
Тes
(С)
Комфортность P
(гПа)
Po
(гПа)
Тmin
(С)
Tmax
(С)
R
(мм)
R24
(мм)
S
(см)
22 15.04 СВ 2 н/о н/о +13.2 +7.9 70 +13 +13 1015.9 1005.6
23 15.04 штиль 0 н/о н/о +20.2 +10.3 53 +21 +21 комфорт 1016.2 1005.9
01 16.04 С 9 н/о н/о +31.7 +3.7 17 +29 +29 жарко 1015.0 1004.8
02 16.04 СЗ 12 н/о н/о +34.1 +2.8 14 +31 +31 жарко 1014.4 1004.2 +11.1
04 16.04 С 10 н/о н/о +35.7 +1.9 12 +32 +32 жарко 1012.4 1002.2
05 16.04 С 10 н/о н/о +36.3 +2.4 12 +33 +33 жарко 1011.4 1001.2
07 16.04 С 8 н/о н/о +35.0 +2.5 13 +32 +32 жарко 1011.1 1000.9
08 16.04 С 7 н/о н/о +34.4 +2.0 13 +31 +31 жарко 1011.2 1001.0
10 16.04 С 5 н/о н/о +28.6 +2.0 18 +26 +26 жарко 1012.1 1001.9
11 16.04 С 5 н/о н/о +27.8 +2.1 19 +26 +26 жарко 1012.3 1002.1
13 16.04 С 8 н/о н/о +29.4 +1.8 17 +27 +27 жарко 1012.3 1002.1
14 16.04 С 10 н/о н/о +29.6 +2.0 17 +27 +27 жарко 1011.6 1001.4 +36.7
16 16.04 С 8 н/о н/о +28.2 +3.1 20 +26 +26 жарко 1011.4 1001.2
17 16.04 С 8 н/о н/о +28.3 +2.5 19 +26 +26 жарко 1011.6 1001.4
19 16.04 СЗ 4 н/о н/о +23.5 +5.4 31 +23 +23 комфорт 1013.0 1002.8
20 16.04 З 3 н/о н/о +22.8 +4.3 30 +23 +23 комфорт 1014.1 1003.9
22 16.04 Ю 2 н/о н/о +18.9 +6.7 45 +20 +20 1015.9 1005.6
23 16.04 Ю 5 н/о н/о +22.4 +12.6 54 +25 +25 комфорт 1016.8 1006.5
01 17.04 Ю 6 н/о н/о +24.6 +13.5 50 +27 +27 жарко 1017.7 1007.4
02 17.04 Ю 6 н/о н/о +26.6 +12.3 41 +28 +28 жарко 1018.2 1007.9 +18.6
04 17.04 ЮЗ 6 н/о н/о +27.8 +10.5 34 +28 +28 жарко 1017.6 1007.3
05 17.04 ЮЗ 9 н/о н/о +27.0 +11.1 37 +28 +28 жарко 1018.0 1007.7
07 17.04 Ю 8 н/о н/о +24.3 +11.6 45 +26 +26 жарко 1019.5 1009.2
08 17.04 Ю 9 н/о н/о +21.7 +10.2 48 +23 +23 комфорт 1020.3 1010.0
10 17.04 Ю 6 н/о н/о +18.3 +11.4 64 +18 +18 1022.9 1012.6
11 17.04 Ю 6 н/о н/о +17.2 +11.0 67 +16 +16 1023.8 1013.5
13 17.04 Ю 5 н/о н/о +15.4 +9.5 68 +14 +14 1024.8 1014.5
14 17.04 ЮВ 4 н/о н/о +14.3 +8.0 66 +13 +13 1025.1 1014.8 +30.0
16 17.04 ЮВ 3 н/о н/о +12.3 +7.0 70 +11 +11 1024.4 1014.1
17 17.04 ЮВ 3 н/о н/о +11.6 +6.7 72 +10 +10 1024.4 1014.1
19 17.04 ЮВ 3 н/о н/о +10.8 +6.6 75 +9 +9 1024.2 1013.9
20 17.04 ЮВ 3 н/о н/о +10.6 +6.7 77 +9 +9 1024.6 1014.3
22 17.04 ЮВ 3 н/о н/о +10.7 +6.6 76 +9 +9 1024.9 1014.6
23 17.04 ЮВ 3 н/о н/о +13.1 +7.3 68 +12 +12 1025.5 1015.1
01 18.04 В 5 н/о н/о +19.8 +8.2 47 +21 +21 комфорт 1024.5 1014.2
02 18.04 В 5 н/о н/о +21.9 +7.3 39 +23 +23 комфорт 1023.9 1013.6 +9.8
04 18.04 ЮВ 3 н/о н/о +26.5 +8.0 31 +26 +26 жарко 1021.5 1011.2
05 18.04 В 4 н/о н/о +27.2 +7.6 29 +27 +27 жарко 1020.7 1010.4
07 18.04 В 2 н/о н/о +28.5 +7.7 27 +28 +28 жарко 1019.9 1009.6
08 18.04 ЮВ 5 н/о н/о +25.5 +7.1 31 +25 +25 комфорт 1019.9 1009.6
10 18.04 ЮВ 2 н/о н/о +20.3 +7.7 44 +22 +22 комфорт 1021.1 1010.8
11 18.04 ЮВ 2 н/о н/о +19.0 +8.4 50 +20 +20 1021.2 1010.9
13 18.04 В 1 н/о н/о +15.5 +6.2 54 +16 +16 1021.4 1011.1
14 18.04 В 1 н/о н/о +14.5 +5.3 54 +15 +15 1020.9 1010.6 +28.7
16 18.04 СВ 3 н/о н/о +16.5 +7.2 54 +16 +16 1019.5 1009.2
17 18.04 СВ 4 н/о н/о +17.7 +7.4 51 +17 +17 1019.3 1009.0
19 18.04 ЮВ 2 н/о н/о +16.2 +7.7 57 +16 +16 1018.4 1008.1
20 18.04 В 1 н/о н/о +15.2 +7.3 59 +16 +16 1018.5 1008.2
22 18.04 С 10 н/о н/о +24.1 +5.0 29 +24 +24 комфорт 1018.5 1008.2
23 18.04 С 9 н/о н/о +25.1 +4.3 26 +24 +24 комфорт 1019.0 1008.7
01 19.04 С 11 н/о н/о +30.1 +2.4 17 +28 +28 жарко 1018.4 1008.1
02 19.04 С 11 н/о н/о +32.1 +1.3 14 +29 +29 жарко 1018.0 1007.7 +14.2
04 19.04 С 10 н/о н/о +33.2 +1.1 13 +30 +30 жарко 1016.5 1006.2
05 19.04 С 10 н/о н/о +33.5 +1.3 13 +30 +30 жарко 1015.7 1005.4
07 19.04 С 9 н/о н/о +32.1 +1.3 14 +29 +29 жарко 1014.9 1004.7
08 19.04 С 7 н/о н/о +31.3 +0.6 14 +28 +28 жарко 1015.3 1005.1
10 19.04 С 4 н/о н/о +26.4 +2.3 21 +25 +25 комфорт 1016.4 1006.1
11 19.04 СВ 3 н/о н/о +22.6 +1.6 25 +22 +22 комфорт 1016.6 1006.3
13 19.04 С 5 н/о н/о +23.8 +3.2 26 +23 +23 комфорт 1016.2 1005.9
14 19.04 С 5 н/о н/о +23.8 +3.2 26 +23 +23 комфорт 1015.7 1005.4 +34.7
16 19.04 С 6 н/о н/о +24.1 +2.9 25 +23 +23 комфорт 1015.0 1004.8
17 19.04 С 7 н/о н/о +24.3 +2.5 24 +23 +23 комфорт 1014.6 1004.4
19 19.04 СВ 6 н/о н/о +20.8 +2.6 30 +21 +21 комфорт 1014.3 1004.1
20 19.04 С 6 н/о н/о +20.8 +2.6 30 +21 +21 комфорт 1014.4 1004.2
22 19.04 С 7 н/о н/о +21.4 +2.6 29 +21 +21 комфорт 1014.9 1004.7
23 19.04 С 8 н/о н/о +24.2 +2.4 24 +23 +23 комфорт 1015.0 1004.8
01 20.04 С 11 н/о н/о +28.7 +1.3 17 +26 +26 жарко 1014.1 1003.9
02 20.04 С 12 н/о н/о +30.8 +0.2 14 +28 +28 жарко 1013.6 1003.4 +19.2
04 20.04 С 11 н/о н/о +31.4 +1.7 15 +29 +29 жарко 1011.4 1001.2
05 20.04 С 11 н/о н/о +31.7 +1.9 15 +29 +29 жарко 1010.4 1000.2
07 20.04 С 10 н/о н/о +30.7 +2.0 16 +28 +28 жарко 1010.2 1000.0
08 20.04 З 13 н/о н/о +21.3 +14.0 63 +24 +24 комфорт 1012.1 1001.9
10 20.04 ЮЗ 14 н/о н/о +15.9 +13.6 86 +13 +13 1015.5 1005.2
11 20.04 ЮЗ 9 н/о н/о +14.5 +12.2 86 +12 +12 1017.7 1007.4
13 20.04 ЮЗ 7 н/о н/о +13.2 +11.6 90 +10 +10 1019.8 1009.5
14 20.04 Ю 2 н/о туман местами н/о +13.0 +11.7 92 +12 +12 1018.8 1008.5 +33.0
16 20.04 З 3 н/о н/о +13.0 +11.4 90 +12 +12 1019.2 1008.9
17 20.04 З 2 н/о в посл. час дождь {туман} н/о +12.6 +11.2 91 +12 +12 1018.5 1008.2 7
19 20.04 СЗ 3 н/о н/о +11.9 +10.6 92 +10 +10 1018.8 1008.5
20 20.04 СЗ 4 н/о н/о +11.9 +10.5 91 +10 +10 1019.5 1009.2
22 20.04 СЗ 3 н/о н/о +10.9 +9.7 92 +9 +9 1020.3 1010.0
23 20.04 СЗ 3 н/о {туман} н/о +13.0 +10.9 87 +12 +12 1021.6 1011.3 7
01 21.04 Ю 6 н/о н/о +17.9 +11.2 65 +17 +17 1022.3 1012.0
02 21.04 Ю 4 н/о н/о +18.0 +9.1 56 +18 +18 1022.3 1012.0 +10.6
04 21.04 ЮЗ 6 н/о н/о +18.2 +7.9 51 +18 +18 1021.9 1011.6
05 21.04 Ю 5 н/о н/о +19.9 +6.6 42 +21 +21 комфорт 1021.5 1011.2
07 21.04 Ю 5 н/о н/о +18.1 +6.9 48 +18 +18 1022.0 1011.7
08 21.04 ЮЗ 8 н/о н/о +16.9 +7.8 55 +16 +16 1022.6 1012.3
10 21.04 Ю 3 н/о н/о +13.4 +8.5 72 +12 +12 1024.5 1014.2
11 21.04 штиль 0 н/о н/о +12.2 +8.7 79 +12 +12 1024.6 1014.3
13 21.04 Ю 3 н/о н/о +12.2 +9.4 83 +11 +11 1026.0 1015.6
14 21.04 Ю 2 н/о н/о +12.2 +9.2 82 +11 +11 1025.8 1015.4 +20.1
16 21.04 штиль 0 н/о н/о +9.3 +7.3 87 +9 +9 1025.1 1014.8
17 21.04 штиль 0 н/о н/о +8.3 +6.8 90 +7 +7 1025.0 1014.7
19 21.04 штиль 0 н/о н/о +5.9 +4.7 92 +5 +5 1025.5 1015.1
20 21.04 СВ 1 н/о н/о +5.5 +4.3 92 +5 +5 1025.8 1015.4
22 21.04 С 2 н/о н/о +5.8 +4.8 93 +3 +3 1026.8 1016.4
23 21.04 ЮЗ 2 н/о н/о +10.3 +8.6 89 +9 +9 1027.7 1017.3
01 22.04 Ю 5 н/о н/о +16.6 +4.6 45 +16 +16 1027.5 1017.1
02 22.04 ЮВ 5 н/о н/о +17.5 +5.1 44 +17 +17 1026.8 1016.4 +4.9
04 22.04 Ю 4 н/о н/о +19.2 +5.3 40 +20 +20 1025.6 1015.2
05 22.04 Ю 5 н/о н/о +19.4 +4.7 38 +20 +20 1025.4 1015.0
07 22.04 ЮВ 5 н/о н/о +20.0 +4.5 36 +20 +20 1025.4 1015.0
08 22.04 ЮВ 5 н/о н/о +18.7 +4.8 40 +19 +19 1026.0 1015.6
10 22.04 ЮВ 3 н/о н/о +14.9 +5.7 54 +14 +14 1027.2 1016.8
11 22.04 ЮВ 3 н/о н/о +13.8 +5.7 58 +13 +13 1027.7 1017.3
13 22.04 В 2 н/о н/о +11.3 +5.8 69 +11 +11 1027.8 1017.4
14 22.04 З 1 н/о н/о +8.5 +5.4 81 +9 +9 1027.4 1017.0 +20.9
16 22.04 Ю 2 н/о н/о +9.4 +6.5 82 +8 +8 1027.5 1017.1
17 22.04 ЮВ 2 н/о н/о +7.9 +5.2 83 +6 +6 1026.9 1016.5
19 22.04 штиль 0 н/о н/о +6.1 +4.7 91 +5 +5 1026.7 1016.3
20 22.04 СВ 2 н/о н/о +5.2 +3.9 91 +3 +3 1027.0 1016.6
22 22.04 штиль 0 н/о н/о +5.9 +4.9 93 +5 +5 1027.8 1017.4

 

Местоположение метеостанции Уудинна (Южная Австралия, Австралия): широта -33.05 долгота 135.45 высота над уровнем моря 87 м.

В архиве по умолчанию представлена погода в Уудинне за последнюю неделю. Архивные данные за месяц целиком и за предыдущие месяцы, начиная с января 2011 года, Вы можете получить, выбрав интересующий диапазон дат из раскрывающегося списка и нажав кнопку "Ввод!".


*Определитесь, кто Вы:
робот инопланетянин человек

Внимание! Время в таблицах - всемирное. Для получения местного времени необходимо прибавить поправку, которая равна 9.5 ч.

Смотрите также архив погоды в соседних городах и на ближайших метеорологических станциях:

Погода в Миннипа Пирса (Южная Австралия, Австралия) (36 км)
Погода в Кливе аэропорту (Южная Австралия, Австралия) (123 км)
Погода в Камминсе (Южная Австралия, Австралия) (136 км)
Погода в Колте (Южная Австралия, Австралия) (148 км)
Погода в Порт-Линкольне (Южная Австралия, Австралия) (177 км)
Погода в Уиолле (Южная Австралия, Австралия) (193 км)
Погода в Сидуне (Южная Австралия, Австралия) (193 км)
Погода в Мунте (Южная Австралия, Австралия) (220 км)
Погода в Порт Огаста (Южная Австралия, Австралия) (220 км)
Погода в Кадине (Южная Австралия, Австралия) (230 км)

Пояснения к столбцам:

Ветер - указаны скорость ветра в м/с - средняя за 10 мин, порывы в срок и между сроками (в фигурных скобках) и направление, откуда дует ветер: С - северный, СВ - северо-восточный, В - восточный, ЮВ - юго-восточный, Ю - южный, ЮЗ - юго-западный, З - западный, СЗ - северо-западный.
Видимость - горизонтальная дальность видимости в метрах или километрах. При видимости от 1 до 10 км при отсутствии осадков обычно наблюдается дымка, при ухудшении видимости до 1 км и менее - туман. В сухую погоду видимость может ухудшаться дымом, пылью или мглою.
Явления - указаны атмосферные явления, наблюдавшиеся в срок или в последний час перед сроком; фигурными скобками обозначены явления, наблюдавшиеся между сроками (за 1-3 часа до срока); квадратными скобками обозначены град или гололедные отложения с указанием их диаметра в мм.
Облачность - указаны через наклонную черту общая и нижняя облачность в баллах и высота нижней границы облаков в метрах; квадратными скобками обозначены формы облаков: Ci - перистые, Cs - перисто-слоистые, Cc - перисто-кучевые, Ac - высококучевые, As - высокослоистые, Sc - слоисто-кучевые, Ns - слоисто-дождевые, Cu - кучевые, Cb - кучево-дождевые. Подробнее классификацию облаков см. в Атласе облаков (PDF).
T - Температура воздуха - температура, измеренная на высоте 2 м над землей.
Td - Температура точки росы - температура, при понижении до которой содержащийся в воздухе водяной пар достигнет насыщения.
f - Относительная влажность воздуха - влажноcть воздуха, измеренная на высоте 2 м над землей.
Te - Эффективная температура - температура, которую ощущает одетый по сезону человек в тени. Характеристика душности погоды. При расчете учитывается влияние влажности воздуха и скорости ветра на теплоощущения человека.
Tes - Эффективная температура на солнце - температура, которую ощущает человек, с поправкой на солнечный нагрев. Характеристика знойности погоды. Зависит от высоты солнца над горизонтом, облачности и скорости ветра. Ночью, в пасмурную погоду, а также при ветре 12 м/с и более поправка равна нулю.
P - Атмосферное давление - приведенное к уровню моря атмосферное давление.
Po - Атмосферное давление - измеренное на уровне метеостанции атмосферное давление.
Tmin - Минимальная температура - минимум температуры воздуха на высоте 2 м над землей.
Tmax - Максимальная температура - максимум температуры воздуха на высоте 2 м над землей.
R - Количество осадков - Количество выпавших осадков за период времени, мм. При наведении курсора мыши на число - период времени, за который выпало указанное количество осадков.
R24 - Количество осадков - Количество выпавших осадков за 24 часа, мм.
S - Снежный покров - Высота снежного покрова, см. При наведении курсора мыши на число - состояние снежного покрова и степень покрытия местности в баллах.